FW1007 Weather Reports


Display with metric or nautical units.
time (UTC)temp
F
wind
direction
speed
MPH
gust
MPH
rain 1hr
in
rain 24hr
in
rain mn
in
humidity
%
barometer
mb
20260507002515 50 273 0.0 4.0 0.00 0.09 0.00 92 1010.8
20260507002015 50 290 1.0 4.0 0.00 0.09 0.00 92 1010.7
20260507001543 50 263 0.0 3.0 0.00 0.09 0.00 92 1010.6
20260507001016 50 306 1.0 3.0 0.00 0.09 0.00 92 1010.7
20260507000514 50 303 0.0 3.0 0.00 0.09 0.00 92 1010.7
20260507000016 50 299 1.0 4.0 0.00 0.09 0.00 92 1010.7
20260506235514 50 260 1.0 4.0 0.00 0.10 0.00 92 1010.7
20260506235014 50 290 1.0 4.0 0.00 0.10 0.00 92 1010.6
20260506234513 50 290 2.0 4.0 0.00 0.10 0.00 92 1010.7
20260506234013 50 285 1.0 4.0 0.00 0.10 0.00 92 1010.7
20260506233513 50 317 1.0 4.0 0.00 0.10 0.00 92 1010.6
20260506233012 50 275 1.0 5.0 0.00 0.10 0.00 92 1010.6
20260506232511 50 273 2.0 5.0 0.00 0.10 0.00 92 1010.6
20260506232011 50 303 1.0 3.0 0.00 0.10 0.00 92 1010.6
20260506231511 50 273 1.0 5.0 0.00 0.10 0.00 92 1010.6
20260506231009 50 248 1.0 5.0 0.00 0.10 0.00 92 1010.5
20260506230515 50 279 1.0 4.0 0.00 0.10 0.00 92 1010.5
20260506230009 50 277 1.0 4.0 0.00 0.10 0.00 92 1010.5
20260506225509 50 270 1.0 3.0 0.00 0.20 0.00 92 1010.4
20260506225008 50 281 1.0 4.0 0.00 0.20 0.00 92 1010.4
20260506224508 50 279 1.0 4.0 0.00 0.20 0.00 92 1010.3
20260506224007 50 290 1.0 4.0 0.00 0.20 0.00 92 1010.3
20260506223507 50 277 1.0 5.0 0.00 0.20 0.00 92 1010.3
20260506223006 50 296 2.0 5.0 0.00 0.20 0.00 92 1010.3
20260506222510 50 299 0.0 4.0 0.00 0.20 0.00 92 1010.2
20260506222005 50 348 1.0 6.0 0.00 0.20 0.00 92 1010.2
20260506221506 50 296 1.0 6.0 0.00 0.20 0.00 92 1010.1
20260506221005 50 303 1.0 6.0 0.00 0.20 0.00 92 1010.1
20260506220505 50 308 2.0 6.0 0.00 0.20 0.00 92 1010.1
20260506220004 50 313 0.0 5.0 0.00 0.20 0.20 92 1010.1
20260506215504 50 298 1.0 4.0 0.00 0.20 0.20 92 1010.1
20260506215006 50 294 0.0 5.0 0.00 0.20 0.20 92 1010.0
20260506214503 50 291 0.0 5.0 0.00 0.20 0.20 92 1010.0
20260506214003 51 309 1.0 4.0 0.00 0.20 0.20 92 1010.0
20260506213503 51 302 1.0 3.0 0.00 0.20 0.20 92 1009.9
20260506213106 51 339 0.0 3.0 0.00 0.20 0.20 92 1010.0
20260506212602 51 267 1.0 3.0 0.00 0.20 0.20 92 1009.9
20260506212102 51 5 0.0 3.0 0.00 0.20 0.20 92 1009.8
20260506211559 51 320 0.0 4.0 0.00 0.20 0.20 92 1009.8
20260506211059 51 286 1.0 4.0 0.00 0.20 0.20 92 1009.7
20260506210559 51 294 1.0 3.0 0.00 0.20 0.20 92 1009.7
20260506205601 51 277 0.0 4.0 0.00 0.20 0.20 92 1009.6
20260506205056 51 323 0.0 4.0 0.00 0.20 0.20 92 1009.6
20260506204558 51 280 1.0 4.0 0.00 0.20 0.20 92 1009.5
20260506204056 51 289 1.0 5.0 0.00 0.20 0.20 92 1009.5
20260506203554 51 293 1.0 6.0 0.00 0.20 0.20 92 1009.4
20260506203112 51 284 1.0 7.0 0.00 0.20 0.20 92 1009.4
20260506202553 52 294 1.0 5.0 0.00 0.20 0.20 92 1009.4
20260506202053 52 285 2.0 5.0 0.00 0.20 0.20 92 1009.4
20260506201552 52 303 1.0 4.0 0.00 0.20 0.20 92 1009.3
20260506201054 52 302 1.0 7.0 0.00 0.20 0.20 92 1009.2
20260506200557 52 286 1.0 7.0 0.00 0.20 0.20 92 1009.2
20260506200056 52 294 1.0 7.0 0.00 0.20 0.20 92 1009.2
20260506195550 52 310 1.0 6.0 0.00 0.20 0.20 92 1009.1
20260506195050 52 275 1.0 4.0 0.00 0.20 0.20 92 1009.1
20260506194550 52 277 0.0 5.0 0.00 0.20 0.20 92 1009.1
20260506194048 52 281 2.0 5.0 0.00 0.20 0.20 92 1009.0
20260506193547 52 265 1.0 4.0 0.00 0.20 0.20 92 1009.0
20260506193050 53 295 1.0 4.0 0.00 0.20 0.20 92 1008.9
20260506192546 53 339 1.0 4.0 0.00 0.20 0.20 92 1008.8
20260506192045 53 294 1.0 4.0 0.00 0.20 0.20 92 1008.8
20260506191545 53 288 1.0 3.0 0.00 0.20 0.20 92 1008.7
20260506191044 53 294 0.0 4.0 0.00 0.20 0.20 92 1008.7
20260506190543 54 289 1.0 4.0 0.00 0.20 0.20 92 1008.6
20260506190045 54 287 0.0 0.0 0.00 0.20 0.20 92 1008.4
20260506185542 54 287 0.0 0.0 0.00 0.20 0.20 92 1008.4
20260506185041 54 254 0.0 0.0 0.00 0.20 0.20 92 1008.3
20260506184545 54 260 0.0 1.0 0.00 0.20 0.20 92 1008.3
20260506184040 54 272 0.0 3.0 0.00 0.20 0.20 91 1008.2
20260506183542 54 294 0.0 3.0 0.00 0.20 0.20 91 1008.2
20260506183038 54 329 0.0 4.0 0.00 0.20 0.20 91 1008.0
20260506182537 54 288 1.0 4.0 0.00 0.20 0.20 91 1008.0
20260506182037 54 290 1.0 3.0 0.00 0.20 0.20 91 1007.9
20260506181541 55 271 1.0 3.0 0.00 0.20 0.20 91 1007.9
20260506181036 55 286 0.0 3.0 0.00 0.20 0.20 91 1007.7
20260506180538 55 292 0.0 3.0 0.00 0.20 0.20 91 1007.7
20260506180036 55 285 0.0 4.0 0.01 0.20 0.20 91 1007.6
20260506175535 55 265 1.0 4.0 0.02 0.20 0.20 91 1007.6
20260506175035 56 289 0.0 4.0 0.03 0.20 0.20 91 1007.5
20260506174538 56 300 0.0 3.0 0.04 0.20 0.20 90 1007.5
20260506174035 56 333 0.0 4.0 0.06 0.20 0.20 90 1007.3
20260506173535 56 336 0.0 4.0 0.07 0.20 0.20 90 1007.2
20260506173036 56 323 1.0 3.0 0.07 0.20 0.20 90 1007.2
20260506172534 56 318 0.0 3.0 0.07 0.20 0.20 90 1007.2
20260506172034 57 316 0.0 4.0 0.07 0.20 0.20 89 1007.2
20260506171536 57 286 1.0 3.0 0.07 0.20 0.20 89 1007.2
20260506171035 57 317 1.0 3.0 0.07 0.20 0.20 89 1007.2
20260506170537 57 277 0.0 2.0 0.07 0.20 0.20 88 1007.1
20260506170038 57 328 0.0 2.0 0.06 0.20 0.19 88 1007.1
20260506165535 57 331 0.0 2.0 0.06 0.20 0.18 88 1007.1
20260506165034 58 319 0.0 2.0 0.04 0.18 0.17 87 1007.1
20260506164548 58 311 0.0 5.0 0.03 0.17 0.16 87 1007.1
20260506164033 58 323 1.0 5.0 0.01 0.15 0.13 87 1007.1
20260506163533 58 291 0.0 2.0 0.00 0.14 0.13 87 1007.0
20260506163037 58 344 0.0 2.0 0.00 0.14 0.13 86 1006.8
20260506162535 58 292 0.0 3.0 0.00 0.14 0.13 86 1006.7
20260506162034 58 340 0.0 4.0 0.00 0.14 0.13 86 1006.7
20260506161532 58 301 1.0 4.0 0.01 0.14 0.13 86 1006.8
20260506161032 59 305 0.0 3.0 0.02 0.14 0.13 86 1006.8
20260506160532 59 300 0.0 3.0 0.02 0.14 0.13 85 1006.7
20260506160035 59 313 0.0 3.0 0.02 0.14 0.13 85 1006.8
20260506155532 59 282 0.0 3.0 0.02 0.20 0.13 85 1006.8
20260506155033 59 304 0.0 3.0 0.02 0.20 0.13 84 1006.8
20260506154531 59 281 0.0 2.0 0.02 0.20 0.13 84 1006.8
20260506154031 59 308 0.0 4.0 0.02 0.20 0.13 84 1006.8
20260506153532 60 290 0.0 5.0 0.02 0.20 0.13 83 1006.7
20260506153030 60 340 0.0 5.0 0.02 0.20 0.13 82 1006.8
20260506152532 60 311 0.0 6.0 0.02 0.20 0.13 81 1006.8
20260506152030 61 307 2.0 7.0 0.02 0.20 0.13 79 1006.7
20260506151533 62 293 3.0 8.0 0.01 0.19 0.12 77 1006.6
20260506151032 62 298 3.0 8.0 0.00 0.18 0.11 73 1006.6
20260506150530 63 300 1.0 7.0 0.00 0.18 0.11 72 1006.5
20260506150030 63 255 3.0 7.0 0.00 0.18 0.11 70 1006.5
20260506145530 63 263 2.0 9.0 0.00 0.18 0.11 69 1006.4
20260506145030 63 259 3.0 8.0 0.00 0.18 0.11 69 1006.4
20260506144530 63 275 3.0 8.0 0.00 0.18 0.11 68 1006.3
20260506144029 63 111 1.0 8.0 0.00 0.18 0.11 68 1006.3
20260506143531 64 324 2.0 8.0 0.00 0.18 0.11 69 1006.2
20260506143036 64 237 2.0 7.0 0.00 0.18 0.11 68 1006.2
20260506142529 64 279 3.0 8.0 0.00 0.18 0.11 67 1006.3
20260506142027 64 206 2.0 8.0 0.00 0.18 0.11 67 1006.2
20260506141531 65 248 1.0 8.0 0.00 0.18 0.11 67 1006.2
20260506141028 65 296 2.0 8.0 0.00 0.18 0.11 67 1006.2
20260506140530 65 333 3.0 8.0 0.00 0.18 0.11 67 1006.1
20260506140027 65 217 3.0 7.0 0.00 0.18 0.11 68 1006.2
20260506135526 64 193 2.0 7.0 0.00 0.18 0.11 67 1006.2
20260506135028 64 232 1.0 8.0 0.00 0.18 0.11 67 1006.2
20260506134526 64 252 2.0 7.0 0.00 0.18 0.11 67 1006.2
20260506134026 64 217 2.0 7.0 0.00 0.18 0.11 67 1006.2
20260506133526 64 216 3.0 8.0 0.00 0.18 0.11 68 1006.3
20260506133027 64 202 1.0 8.0 0.00 0.18 0.11 68 1006.2
20260506132528 64 250 3.0 8.0 0.00 0.18 0.11 66 1006.2
20260506132025 64 325 1.0 7.0 0.00 0.18 0.11 66 1006.2
20260506131525 64 238 3.0 6.0 0.00 0.18 0.11 66 1006.2
20260506131025 64 208 2.0 8.0 0.00 0.18 0.11 66 1006.3
20260506130528 64 301 2.0 9.0 0.00 0.18 0.11 67 1006.2
20260506130027 64 245 2.0 8.0 0.00 0.18 0.11 67 1006.2
20260506125524 64 207 3.0 8.0 0.00 0.18 0.11 66 1006.2
20260506125026 64 204 2.0 6.0 0.00 0.18 0.11 68 1006.2
20260506124524 64 223 2.0 6.0 0.00 0.18 0.11 68 1006.2
20260506124024 64 246 3.0 8.0 0.00 0.18 0.11 68 1006.2
20260506123523 63 216 1.0 9.0 0.00 0.18 0.11 68 1006.3
20260506123023 63 231 2.0 7.0 0.00 0.18 0.11 68 1006.3
20260506122523 63 224 3.0 7.0 0.00 0.18 0.11 68 1006.4
20260506122022 63 227 2.0 7.0 0.00 0.18 0.11 68 1006.4
20260506121523 63 195 2.0 9.0 0.00 0.18 0.11 68 1006.4
20260506121022 63 213 5.0 9.0 0.00 0.18 0.11 68 1006.5
20260506120522 63 203 3.0 9.0 0.00 0.18 0.11 67 1006.5
20260506120046 63 264 4.0 8.0 0.00 0.18 0.11 67 1006.4
20260506115525 63 191 4.0 10.0 0.00 0.18 0.11 67 1006.4
20260506115021 64 211 3.0 10.0 0.00 0.18 0.11 67 1006.4
20260506114521 64 228 5.0 10.0 0.00 0.18 0.11 67 1006.4
20260506114021 63 259 3.0 9.0 0.00 0.18 0.11 68 1006.4
20260506113521 63 244 5.0 11.0 0.00 0.18 0.11 67 1006.5
20260506113021 63 196 5.0 11.0 0.00 0.18 0.11 67 1006.4
20260506112521 63 300 3.0 9.0 0.00 0.18 0.11 67 1006.4
20260506112020 63 150 4.0 9.0 0.00 0.18 0.11 68 1006.5
20260506111520 63 217 4.0 8.0 0.00 0.18 0.11 69 1006.5
20260506111020 63 200 4.0 7.0 0.00 0.18 0.11 68 1006.5
20260506110520 63 207 3.0 7.0 0.00 0.18 0.11 70 1006.5
20260506110020 63 264 3.0 9.0 0.00 0.18 0.11 69 1006.5
20260506105524 64 196 2.0 11.0 0.00 0.18 0.11 69 1006.6
20260506105020 64 165 4.0 12.0 0.00 0.18 0.11 68 1006.6
20260506104531 64 234 6.0 12.0 0.00 0.18 0.11 67 1006.5
20260506104024 64 202 3.0 11.0 0.00 0.18 0.11 67 1006.6
20260506103519 65 250 4.0 10.0 0.00 0.18 0.11 67 1006.5
20260506103035 65 223 3.0 10.0 0.00 0.18 0.11 67 1006.5
20260506102520 65 254 3.0 7.0 0.00 0.18 0.11 68 1006.6
20260506102018 65 312 4.0 7.0 0.00 0.18 0.11 67 1006.6
20260506101519 65 243 3.0 11.0 0.00 0.18 0.11 67 1006.6
20260506101018 65 154 3.0 11.0 0.00 0.18 0.11 68 1006.6
20260506100520 65 177 3.0 10.0 0.00 0.18 0.11 68 1006.6
20260506100015 64 248 0.0 10.0 0.00 0.18 0.11 70 1006.5
20260506095513 64 183 5.0 12.0 0.00 0.18 0.11 71 1006.5
20260506095014 63 206 5.0 12.0 0.00 0.18 0.11 72 1006.5
20260506094513 62 209 4.0 8.0 0.00 0.18 0.11 73 1006.5
20260506094012 61 193 4.0 8.0 0.00 0.18 0.11 73 1006.4
20260506093511 61 247 2.0 7.0 0.00 0.18 0.11 74 1006.5
20260506093019 61 288 3.0 7.0 0.00 0.18 0.11 74 1006.5
20260506092511 62 296 2.0 10.0 0.00 0.18 0.11 73 1006.6
20260506092011 62 248 2.0 10.0 0.00 0.18 0.11 72 1006.5
20260506091516 62 221 3.0 11.0 0.00 0.18 0.11 72 1006.6
20260506091011 62 220 5.0 11.0 0.00 0.18 0.11 71 1006.5
20260506090509 63 182 4.0 9.0 0.00 0.18 0.11 73 1006.5
20260506090008 62 21 3.0 9.0 0.00 0.18 0.11 73 1006.6
20260506085507 62 229 4.0 9.0 0.00 0.18 0.11 74 1006.5
20260506085006 61 173 4.0 10.0 0.00 0.18 0.11 75 1006.5
20260506084506 61 202 7.0 11.0 0.00 0.18 0.11 74 1006.6
20260506084010 61 247 4.0 10.0 0.00 0.18 0.11 74 1006.5
20260506083506 61 246 5.0 11.0 0.00 0.18 0.11 74 1006.4
20260506083005 61 222 4.0 10.0 0.00 0.18 0.11 75 1006.4
20260506082505 61 215 4.0 10.0 0.00 0.18 0.11 76 1006.4
20260506082003 61 180 4.0 9.0 0.00 0.18 0.11 76 1006.4
20260506081503 61 219 3.0 9.0 0.00 0.18 0.11 77 1006.4
20260506081005 61 233 3.0 9.0 0.00 0.18 0.11 78 1006.4
20260506080503 61 154 4.0 9.0 0.00 0.18 0.11 78 1006.4
20260506073058 61 178 3.0 10.0 0.00 0.18 0.11 81 1006.5
20260506072557 60 200 5.0 10.0 0.00 0.18 0.11 82 1006.4
20260506072056 60 209 4.0 8.0 0.00 0.18 0.11 83 1006.4
20260506071558 60 198 3.0 7.0 0.00 0.18 0.11 85 1006.4
20260506071052 59 184 3.0 8.0 0.00 0.18 0.11 86 1006.4
20260506070552 59 245 4.0 7.0 0.00 0.18 0.11 87 1006.5
20260506062043 57 187 3.0 7.0 0.00 0.18 0.11 94 1006.4
20260506061542 57 189 3.0 7.0 0.00 0.18 0.11 94 1006.4
20260506061041 56 249 2.0 8.0 0.00 0.18 0.11 95 1006.3
20260506060540 56 170 4.0 9.0 0.00 0.18 0.11 95 1006.4
20260506051031 54 249 1.0 8.0 0.00 0.18 0.11 96 1006.2
20260506050529 54 216 2.0 8.0 0.00 0.18 0.11 96 1006.4
20260506045027 54 202 2.0 6.0 0.00 0.18 0.11 95 1006.4
20260506044535 54 207 2.0 6.0 0.00 0.18 0.11 95 1006.4
20260506044028 54 196 2.0 6.0 0.00 0.18 0.11 95 1006.3
20260506043533 54 208 2.0 6.0 0.00 0.18 0.11 95 1006.3
20260506043025 54 205 2.0 6.0 0.00 0.18 0.11 95 1006.3
20260506042525 54 209 2.0 6.0 0.00 0.18 0.11 95 1006.4
20260506042024 54 177 2.0 5.0 0.00 0.18 0.11 95 1006.4
20260506041524 54 201 3.0 9.0 0.00 0.18 0.11 95 1006.3
20260506041023 54 190 2.0 6.0 0.00 0.18 0.11 95 1006.4
20260506040522 54 197 2.0 6.0 0.00 0.18 0.11 95 1006.3
20260506040027 54 310 3.0 6.0 0.00 0.18 0.11 95 1006.4
20260506035522 54 205 3.0 6.0 0.00 0.18 0.11 95 1006.4
20260506035021 54 194 3.0 6.0 0.01 0.18 0.11 95 1006.4
20260506034521 54 221 3.0 6.0 0.01 0.18 0.11 95 1006.5
20260506034020 54 208 2.0 6.0 0.01 0.18 0.11 95 1006.5
20260506033521 54 204 3.0 6.0 0.01 0.18 0.11 95 1006.5
20260506033019 54 207 2.0 6.0 0.01 0.18 0.11 95 1006.4
20260506032518 54 227 2.0 7.0 0.01 0.18 0.11 95 1006.4
20260506032019 54 192 3.0 7.0 0.01 0.18 0.11 95 1006.5
20260506031518 54 204 2.0 5.0 0.01 0.18 0.11 95 1006.5
20260506031017 54 168 2.0 6.0 0.01 0.18 0.11 95 1006.6
20260506030517 55 210 3.0 5.0 0.01 0.18 0.11 95 1006.5
20260506030016 55 206 2.0 4.0 0.01 0.18 0.11 95 1006.6
20260506025515 55 211 2.0 4.0 0.01 0.18 0.11 95 1006.6
20260506025017 55 211 2.0 4.0 0.00 0.17 0.10 95 1006.6
20260506024515 55 235 2.0 4.0 0.00 0.17 0.10 95 1006.6
20260506024015 55 196 1.0 5.0 0.00 0.17 0.10 95 1006.6
20260506023515 55 232 2.0 5.0 0.00 0.17 0.10 95 1006.6
20260506023020 55 215 1.0 5.0 0.00 0.17 0.10 95 1006.6
20260506022513 55 190 1.0 4.0 0.00 0.17 0.10 95 1006.6
20260506022017 55 189 1.0 4.0 0.00 0.17 0.10 95 1006.6
20260506021516 55 242 2.0 4.0 0.00 0.17 0.10 95 1006.7
20260506021016 55 180 0.0 4.0 0.00 0.17 0.10 95 1006.7
20260506020511 55 207 1.0 4.0 0.00 0.17 0.10 95 1006.9
20260506020013 55 209 2.0 5.0 0.00 0.17 0.10 95 1006.9
20260506015511 55 195 2.0 4.0 0.00 0.17 0.10 95 1006.9
20260506015011 55 167 1.0 7.0 0.00 0.17 0.10 95 1006.8
20260506014513 55 195 2.0 5.0 0.00 0.17 0.10 95 1006.8
20260506014010 55 195 2.0 6.0 0.00 0.17 0.10 95 1006.9
20260506013510 55 194 3.0 6.0 0.00 0.17 0.10 95 1006.9
20260506013013 55 192 2.0 7.0 0.00 0.17 0.10 95 1007.0
20260506012510 55 211 3.0 6.0 0.00 0.17 0.10 95 1006.9
20260506012009 55 239 2.0 6.0 0.00 0.17 0.10 95 1007.0
20260506011509 55 188 3.0 6.0 0.00 0.17 0.10 95 1007.0
20260506011008 55 201 2.0 7.0 0.00 0.17 0.10 95 1007.1
20260506010508 55 207 3.0 7.0 0.00 0.17 0.10 95 1006.9
20260506010012 55 196 2.0 7.0 0.00 0.17 0.10 95 1006.9
20260506005507 55 220 3.0 7.0 0.00 0.17 0.10 95 1007.0
20260506005009 55 205 2.0 6.0 0.00 0.17 0.10 95 1006.9
20260506004506 55 213 2.0 5.0 0.00 0.17 0.10 95 1006.9
20260506004011 56 188 2.0 5.0 0.00 0.17 0.10 95 1006.9
20260506003510 56 213 2.0 6.0 0.00 0.17 0.10 95 1007.0
20260506003004 56 196 3.0 5.0 0.00 0.17 0.10 95 1007.0